Weather History for Watsonville, CA

Change the Weather History Date:

Friday, October 28, 2011

  Actual Average Record
Temperature  
Mean Temperature 61 °F 59 °F  
Max Temperature 78 °F 71 °F 93 °F (2003)
Min Temperature 44 °F 47 °F 42 °F (2004)
Degree Days  
Heating Degree Days 4    
Month to date heating degree days 97  
Since 1 July heating degree days 308  
Cooling Degree Days 0    
Month to date cooling degree days 42  
Year to date cooling degree days 111  
Growing Degree Days 13 (Base 50)    
Moisture  
Dew Point 42 °F    
Average Humidity 56    
Maximum Humidity 86    
Minimum Humidity 25    
Precipitation  
Precipitation 0.00 in - 1.27 in (1981)
Month to date precipitation 1.91  
Year to date precipitation 20.23  
Since 1 July precipitation 2.05  
Sea Level Pressure  
Sea Level Pressure 30.09 in    
Wind  
Wind Speed 2 mph (WSW)    
Max Wind Speed 8 mph    
Max Gust Speed 10 mph    
Visibility 10 miles    
Events      
T = Trace of Precipitation, MM = Missing Value Source: NWS Daily Summary

Daily Weather History Graph

Daily Weather History Graph

Search for Another Location

Airport:

Trip Planner

Search our weather history database for the weather conditions in past years. The results will help you decide how hot, cold, wet, or windy it might be!

Date:

Astronomy

Oct. 28, 2011 Rise Set
Actual Time 7:26 AM PDT 6:14 PM PDT
Civil Twilight 7:00 AM PDT 6:41 PM PDT
Nautical Twilight 6:29 AM PDT 7:11 PM PDT
Astronomical Twilight 5:59 AM PDT 7:41 PM PDT
Moon 9:44 AM PDT (10/28) 7:47 PM PDT (10/28)
Length of Visible Light 11h 40m
Length of Day
10h 47m
Waxing Crescent, 6% of the Moon is Illuminated
Oct 28
Waxing Crescent
Nov 2
First Quarter
Nov 10
Full
Nov 18
Last Quarter
Nov 24
New

Hourly Weather History & Observations

Time (PDT) Temp. Dew Point Humidity Pressure Visibility Wind Dir Wind Speed Gust Speed Precip Events Conditions
1:53 AM 48.9 °F 39.0 °F 69% 30.07 in 10.0 mi NW 4.6 mph - N/A   Clear
3:53 AM 48.9 °F 37.0 °F 64% 30.06 in 10.0 mi Calm Calm - N/A   Clear
4:53 AM 48.9 °F 37.9 °F 66% 30.06 in 10.0 mi Calm Calm - N/A   Clear
5:53 AM 48.9 °F 37.0 °F 64% 30.07 in 10.0 mi Calm Calm - N/A   Clear
6:53 AM 48.9 °F 37.9 °F 66% 30.08 in 10.0 mi Calm Calm - N/A   Clear
7:53 AM 48.9 °F 39.0 °F 69% 30.09 in 10.0 mi Calm Calm - N/A   Unknown
8:53 AM 54.0 °F 42.1 °F 64% 30.11 in 10.0 mi Calm Calm - N/A   Clear
10:53 AM 66.0 °F 42.1 °F 42% 30.12 in 10.0 mi Calm Calm - N/A   Clear
11:53 AM 71.1 °F 42.1 °F 35% 30.12 in 10.0 mi Calm Calm - N/A   Clear
12:53 PM 75.0 °F 43.0 °F 32% 30.10 in 10.0 mi Calm Calm - N/A   Clear
1:53 PM 78.1 °F 42.1 °F 28% 30.07 in 10.0 mi SSW 5.8 mph - N/A   Clear
2:53 PM 78.1 °F 42.1 °F 28% 30.06 in 10.0 mi WSW 6.9 mph - N/A   Clear
3:53 PM 75.9 °F 39.0 °F 26% 30.06 in 10.0 mi SW 6.9 mph - N/A   Clear
4:53 PM 73.9 °F 36.0 °F 25% 30.05 in 10.0 mi WSW 5.8 mph - N/A   Clear
6:53 PM 57.9 °F 52.0 °F 81% 30.07 in 10.0 mi Calm Calm - N/A   Clear
7:53 PM 55.0 °F 51.1 °F 86% 30.08 in 10.0 mi SSW 3.5 mph - N/A   Clear
8:53 PM 55.9 °F 50.0 °F 80% 30.10 in 10.0 mi WSW 3.5 mph - N/A   Clear
9:53 PM 54.0 °F 46.9 °F 77% 30.11 in 10.0 mi Calm Calm - N/A   Clear
10:53 PM 53.1 °F 45.0 °F 74% 30.12 in 10.0 mi Calm Calm - N/A   Clear
11:53 PM 52.0 °F 44.1 °F 74% 30.12 in 10.0 mi NW 3.5 mph - N/A   Clear